SV2MJJ Weather Reports


time (UTC)temp
F
wind
direction
speed
knots
gust
knots
rain 1hr
in
rain 24hr
in
rain mn
in
humidity
%
barometer
mb
20200708134550 83 174 0.9 4.3 0.00 0.00 0.00 40 1010.0
20200708134057 83 174 0.9 3.5 0.00 0.00 0.00 41 1010.1
20200708133604 82 174 0.0 4.3 0.00 0.00 0.00 41 1010.2
20200708133038 82 174 1.7 5.2 0.00 0.00 0.00 39 1010.2
20200708132543 83 172 1.7 5.2 0.00 0.00 0.00 40 1010.2
20200708132052 82 172 0.9 5.2 0.00 0.00 0.00 41 1010.2
20200708131600 82 172 0.0 5.2 0.00 0.00 0.00 40 1010.3
20200708131100 82 172 3.5 6.1 0.00 0.00 0.00 39 1010.3
20200708130537 82 171 2.6 6.1 0.00 0.00 0.00 40 1010.3
20200708130043 83 169 1.7 6.1 0.00 0.00 0.00 40 1010.3
20200708125544 83 171 0.0 7.0 0.00 0.00 0.00 41 1010.2
20200708125057 83 168 2.6 7.0 0.00 0.00 0.00 40 1010.2
20200708124602 82 170 0.0 5.2 0.00 0.00 0.00 43 1010.2
20200708124039 82 170 0.9 6.1 0.00 0.00 0.00 44 1010.1
20200708123542 82 165 0.9 5.2 0.00 0.00 0.00 43 1010.1
20200708123044 82 165 0.0 6.1 0.00 0.00 0.00 42 1010.1
20200708122533 82 165 1.7 7.0 0.00 0.00 0.00 42 1010.1
20200708122051 82 160 0.9 6.1 0.00 0.00 0.00 43 1010.3
20200708121538 83 150 0.0 6.1 0.00 0.00 0.00 42 1010.2
20200708121041 83 146 0.9 7.0 0.00 0.00 0.00 41 1010.2
20200708120546 83 152 0.9 7.0 0.00 0.00 0.00 40 1010.2
20200708120045 83 163 0.9 7.0 0.00 0.00 0.00 40 1010.2
20200708115550 83 163 2.6 7.0 0.00 0.00 0.00 41 1010.3
20200708115052 83 157 0.0 6.1 0.00 0.00 0.00 43 1010.2
20200708114551 82 158 0.9 7.0 0.00 0.00 0.00 43 1010.3
20200708114039 82 165 2.6 8.7 0.00 0.00 0.00 44 1010.3
20200708113547 82 172 2.6 7.8 0.00 0.00 0.00 45 1010.4
20200708113048 82 183 0.0 6.1 0.00 0.00 0.00 45 1010.4
20200708112550 82 185 0.9 6.1 0.00 0.00 0.00 44 1010.4
20200708112049 82 187 0.0 7.0 0.00 0.00 0.00 43 1010.4
20200708111535 81 187 1.7 7.0 0.00 0.00 0.00 44 1010.4
20200708111033 82 203 3.5 4.3 0.00 0.00 0.00 44 1010.5
20200708110539 81 211 0.0 4.3 0.00 0.00 0.00 43 1010.4
20200708110042 81 213 0.9 4.3 0.00 0.00 0.00 44 1010.5
20200708105543 81 216 0.9 7.0 0.00 0.00 0.00 44 1010.5
20200708105046 81 232 1.7 7.0 0.00 0.00 0.00 43 1010.5
20200708104550 81 232 0.0 4.3 0.00 0.00 0.00 45 1010.4
20200708104037 80 240 0.0 4.3 0.00 0.00 0.00 45 1010.4
20200708103538 80 244 0.9 3.5 0.00 0.00 0.00 46 1010.5
20200708103037 80 247 0.0 0.9 0.00 0.00 0.00 46 1010.4
20200708102543 80 248 0.0 0.9 0.00 0.00 0.00 46 1010.5
20200708102042 80 248 0.0 2.6 0.00 0.00 0.00 47 1010.6
20200708101548 79 248 0.0 2.6 0.00 0.00 0.00 47 1010.5
20200708101053 79 249 0.0 0.9 0.00 0.00 0.00 48 1010.5
20200708100556 78 250 0.0 1.7 0.00 0.00 0.00 49 1010.5
20200708100058 77 250 0.0 7.0 0.00 0.00 0.00 50 1010.5
20200708095535 77 250 3.5 7.0 0.00 0.00 0.00 49 1010.5
20200708095049 77 252 0.0 9.6 0.00 0.00 0.00 50 1010.6
20200708094553 77 252 5.2 9.6 0.00 0.00 0.00 49 1010.6
20200708094056 78 261 0.0 3.5 0.00 0.00 0.00 49 1010.5
20200708093601 78 261 0.0 5.2 0.00 0.00 0.00 49 1010.5
20200708093103 78 261 0.9 5.2 0.00 0.00 0.00 49 1010.6
20200708092538 77 261 0.0 5.2 0.00 0.00 0.00 49 1010.5
20200708092042 77 261 0.9 5.2 0.00 0.00 0.00 50 1010.6
20200708091548 76 261 0.0 1.7 0.00 0.00 0.00 51 1010.6
20200708091052 76 261 0.0 1.7 0.00 0.00 0.00 50 1010.5
20200708090538 76 261 0.0 5.2 0.00 0.00 0.00 50 1010.6
20200708090042 76 261 0.0 5.2 0.00 0.00 0.00 49 1010.7
20200708085549 76 261 0.0 6.1 0.00 0.00 0.00 51 1010.6
20200708085046 75 261 0.0 6.1 0.00 0.00 0.00 50 1010.6
20200708084552 76 261 0.0 3.5 0.00 0.00 0.00 50 1010.6
20200708084052 76 261 0.0 0.0 0.00 0.00 0.00 50 1010.6
20200708083533 76 261 0.0 0.0 0.00 0.00 0.00 51 1010.5
20200708083038 76 261 0.0 0.9 0.00 0.00 0.00 51 1010.6
20200708082548 76 261 0.0 0.9 0.00 0.00 0.00 52 1010.6
20200708082049 75 261 0.0 0.0 0.00 0.00 0.00 52 1010.6
20200708081535 75 261 0.0 0.9 0.00 0.00 0.00 53 1010.6
20200708081036 75 261 0.0 0.9 0.00 0.00 0.00 53 1010.5
20200708080540 75 261 0.0 0.9 0.00 0.00 0.00 52 1010.4
20200708080042 75 261 0.0 2.6 0.00 0.00 0.00 52 1010.5
20200708075550 75 261 0.0 2.6 0.00 0.00 0.00 54 1010.5
20200708075035 75 261 0.0 0.0 0.00 0.00 0.00 54 1010.4
20200708074535 74 261 0.0 0.0 0.00 0.00 0.00 54 1010.3
20200708074038 74 261 0.0 0.0 0.00 0.00 0.00 55 1010.3
20200708073545 74 261 0.0 0.0 0.00 0.00 0.00 54 1010.2
20200708073046 74 261 0.0 0.0 0.00 0.00 0.00 55 1010.3
20200708072555 73 261 0.0 0.9 0.00 0.00 0.00 55 1010.3
20200708072058 73 261 0.0 0.9 0.00 0.00 0.00 55 1010.3
20200708071559 73 261 0.0 0.0 0.00 0.00 0.00 56 1010.2
20200708071048 72 261 0.0 0.0 0.00 0.00 0.00 55 1010.1
20200708070554 72 261 0.0 0.9 0.00 0.00 0.00 55 1010.1
20200708070058 72 261 0.0 0.9 0.00 0.00 0.00 55 1010.1
20200708065533 71 261 0.0 0.0 0.00 0.00 0.00 55 1010.1
20200708065042 71 261 0.0 0.9 0.00 0.00 0.00 56 1010.2
20200708064549 71 261 0.0 2.6 0.00 0.00 0.00 57 1010.2
20200708064051 71 261 0.0 3.5 0.00 0.00 0.00 57 1010.2
20200708063536 71 261 1.7 5.2 0.00 0.00 0.00 55 1010.1
20200708063039 71 261 2.6 5.2 0.00 0.00 0.00 55 1010.1
20200708062542 71 261 0.0 0.9 0.00 0.00 0.00 56 1010.1
20200708062034 71 261 0.0 0.9 0.00 0.00 0.00 56 1010.1
20200708061541 71 261 0.0 0.9 0.00 0.00 0.00 56 1010.0
20200708061043 70 261 0.0 3.5 0.00 0.00 0.00 58 1010.0
20200708060546 70 261 0.9 3.5 0.00 0.00 0.00 58 1010.0
20200708060049 70 261 0.0 2.6 0.00 0.00 0.00 58 1010.0
20200708055535 69 262 0.0 6.1 0.00 0.00 0.00 59 1010.0
20200708055052 69 261 0.0 6.1 0.00 0.00 0.00 59 1010.0
20200708054542 69 262 0.0 6.1 0.00 0.00 0.00 60 1010.0
20200708054047 69 263 1.7 6.1 0.00 0.00 0.00 60 1010.0
20200708053547 69 264 0.9 6.1 0.00 0.00 0.00 60 1009.9
20200708053044 68 266 0.0 6.1 0.00 0.00 0.00 59 1009.8
20200708052552 68 267 0.9 5.2 0.00 0.00 0.00 60 1009.8
20200708052034 68 267 0.0 6.1 0.00 0.00 0.00 59 1009.7
20200708051536 68 267 1.7 6.1 0.00 0.00 0.00 60 1009.6
20200708051039 68 267 0.0 6.1 0.00 0.00 0.00 60 1009.6
20200708050547 68 267 1.7 6.1 0.00 0.00 0.00 59 1009.5
20200708050047 68 267 1.7 7.0 0.00 0.00 0.00 62 1009.5
20200708045552 68 268 3.5 6.1 0.00 0.00 0.00 61 1009.4
20200708045052 68 272 0.9 4.3 0.00 0.00 0.00 61 1009.4
20200708044538 68 275 0.9 4.3 0.00 0.00 0.00 62 1009.3
20200708044039 68 275 0.0 4.3 0.00 0.00 0.00 63 1009.3
20200708043547 68 275 0.0 7.0 0.00 0.00 0.00 64 1009.3
20200708043050 68 277 1.7 7.0 0.00 0.00 0.00 64 1009.2
20200708042552 68 277 3.5 7.0 0.00 0.00 0.00 66 1009.1
20200708042055 68 277 2.6 7.0 0.00 0.00 0.00 65 1009.1
20200708041534 68 279 2.6 5.2 0.00 0.00 0.00 64 1009.0
20200708041053 68 279 0.0 0.0 0.00 0.00 0.00 63 1009.0
20200708040546 68 279 0.0 4.3 0.00 0.00 0.00 62 1009.0
20200708040059 67 279 1.7 4.3 0.00 0.00 0.00 61 1009.0
20200708035535 67 279 2.6 4.3 0.00 0.00 0.00 63 1008.7
20200708035037 67 279 0.0 4.3 0.00 0.00 0.00 63 1008.6
20200708034545 67 279 1.7 6.1 0.00 0.00 0.00 63 1008.6
20200708034051 67 279 3.5 6.1 0.00 0.00 0.00 63 1008.5
20200708033540 67 279 2.6 4.3 0.00 0.00 0.00 67 1008.5
20200708033039 67 279 0.9 3.5 0.00 0.00 0.00 69 1008.5
20200708032546 67 279 0.0 3.5 0.00 0.00 0.00 69 1008.4
20200708032051 67 279 0.0 6.1 0.00 0.00 0.00 70 1008.4
20200708031533 66 279 1.7 6.1 0.00 0.00 0.00 70 1008.2
20200708031036 66 279 0.9 6.1 0.00 0.00 0.00 72 1008.2
20200708030544 66 279 3.5 6.1 0.00 0.00 0.00 72 1008.2
20200708030042 67 279 3.5 7.0 0.00 0.00 0.00 71 1008.1
20200708025550 68 279 5.2 7.0 0.00 0.00 0.00 69 1008.0
20200708025054 68 279 2.6 7.0 0.00 0.00 0.00 68 1008.1
20200708024602 68 279 3.5 7.0 0.00 0.00 0.00 67 1007.8
20200708024037 68 279 1.7 5.2 0.00 0.00 0.00 69 1007.9
20200708023542 67 279 0.0 0.0 0.00 0.00 0.00 71 1007.8
20200708023049 67 279 0.0 0.0 0.00 0.00 0.00 71 1007.7
20200708022551 67 279 0.0 0.0 0.00 0.00 0.00 73 1007.8
20200708022034 67 279 0.0 0.0 0.00 0.00 0.00 73 1007.8
20200708021545 67 279 0.0 0.0 0.00 0.00 0.00 74 1007.8
20200708021034 67 279 0.0 0.0 0.00 0.00 0.00 74 1007.7
20200708020535 68 279 0.0 2.6 0.00 0.00 0.00 73 1007.8
20200708020042 68 279 0.0 3.5 0.00 0.00 0.00 73 1007.8
20200708015548 68 279 0.0 3.5 0.00 0.00 0.00 72 1007.8
20200708015048 68 279 0.0 0.0 0.00 0.00 0.00 71 1007.8
20200708014534 69 279 0.0 0.0 0.00 0.00 0.00 70 1007.8
20200708014042 68 279 0.0 0.0 0.00 0.00 0.00 69 1007.8
20200708013540 68 279 0.0 0.0 0.00 0.00 0.00 68 1007.8
20200708013046 68 279 0.0 0.0 0.00 0.00 0.00 68 1007.8
20200708012550 69 279 0.0 0.0 0.00 0.00 0.00 69 1007.8
20200708012050 69 279 0.0 3.5 0.00 0.00 0.00 69 1007.8
20200708011551 69 279 0.0 6.1 0.00 0.00 0.00 68 1007.7
20200708011036 69 279 1.7 6.1 0.00 0.00 0.00 69 1007.7
20200708010545 69 278 0.0 0.9 0.00 0.00 0.00 69 1007.6
20200708010044 69 278 0.0 0.0 0.00 0.04 0.00 69 1007.5
20200708005548 69 278 0.0 2.6 0.00 0.04 0.00 69 1007.4
20200708005033 69 278 0.0 3.5 0.00 0.04 0.00 70 1007.4
20200708004541 68 278 0.0 6.1 0.00 0.04 0.00 70 1007.5
20200708004040 68 278 0.9 6.1 0.00 0.04 0.00 70 1007.4
20200708003542 69 278 3.5 7.8 0.00 0.04 0.00 70 1007.4
20200708003045 69 281 3.5 6.1 0.00 0.04 0.00 69 1007.3
20200708002548 69 281 3.5 7.8 0.00 0.04 0.00 69 1007.3
20200708002053 69 282 2.6 7.8 0.00 0.04 0.00 69 1007.3
20200708001601 69 282 0.9 9.6 0.00 0.04 0.00 69 1007.3
20200708001034 68 282 5.2 9.6 0.00 0.04 0.00 72 1007.1
20200708000541 68 266 5.2 9.6 0.00 0.04 0.00 72 1007.1
20200708000045 68 296 0.0 5.2 0.00 0.04 0.00 72 1007.1
20200707235533 68 296 2.6 9.6 0.00 0.04 0.00 72 1006.9
20200707235057 68 296 5.2 13.0 0.00 0.04 0.00 72 1006.9
20200707234540 68 272 7.0 13.0 0.00 0.04 0.00 72 1006.8
20200707234046 68 265 6.1 13.9 0.00 0.04 0.00 72 1006.8
20200707233546 68 257 8.7 13.9 0.00 0.04 0.00 71 1006.8
20200707233048 68 264 9.6 13.0 0.00 0.04 0.00 71 1006.8
20200707232533 69 265 6.1 9.6 0.00 0.04 0.00 71 1006.9
20200707232040 69 263 5.2 10.4 0.00 0.04 0.00 71 1007.0
20200707231543 69 263 7.0 10.4 0.00 0.04 0.00 71 1006.9
20200707231048 68 263 6.1 8.7 0.00 0.04 0.00 71 1007.1
20200707230533 69 265 6.1 9.6 0.00 0.04 0.00 72 1007.2
20200707230037 69 267 5.2 9.6 0.00 0.04 0.00 71 1007.2
20200707225545 69 269 5.2 9.6 0.00 0.04 0.00 71 1007.2
20200707225048 69 267 6.1 9.6 0.00 0.04 0.00 71 1007.0
20200707224553 69 271 5.2 7.8 0.00 0.04 0.00 71 1006.9
20200707224056 69 273 3.5 8.7 0.00 0.04 0.00 71 1006.8
20200707223559 69 271 2.6 10.4 0.00 0.04 0.00 72 1006.8
20200707223034 69 273 6.1 10.4 0.00 0.04 0.00 71 1006.8
20200707222537 69 286 6.1 8.7 0.00 0.04 0.00 72 1006.7
20200707222044 69 275 4.3 7.8 0.00 0.04 0.00 72 1006.7
20200707221551 69 276 4.3 8.7 0.00 0.04 0.00 71 1006.7
20200707221103 70 284 4.3 8.7 0.00 0.04 0.00 71 1006.7
20200707220535 70 79 2.6 7.0 0.00 0.04 0.00 71 1006.7
20200707220042 70 93 0.0 3.5 0.00 0.04 0.00 72 1006.7
20200707215548 70 93 0.0 3.5 0.00 0.04 0.00 72 1006.7
20200707215050 70 94 0.9 5.2 0.00 0.04 0.00 72 1006.6
20200707214537 70 93 0.9 5.2 0.00 0.04 0.00 72 1006.7
20200707214043 71 96 2.6 5.2 0.00 0.04 0.00 71 1006.6
20200707213545 71 98 2.6 5.2 0.00 0.04 0.00 70 1006.6
20200707213049 71 101 1.7 5.2 0.00 0.04 0.00 72 1006.5
20200707212538 71 101 0.0 6.1 0.00 0.04 0.00 72 1006.4
20200707212041 72 102 0.9 6.1 0.00 0.04 0.00 71 1006.3
20200707211544 72 105 3.5 6.1 0.00 0.04 0.00 68 1006.3
20200707211051 73 100 0.0 3.5 0.00 0.04 0.00 69 1006.3
20200707210559 73 101 0.0 0.0 0.00 0.04 0.00 66 1006.2
20200707210054 73 101 0.0 0.0 0.00 0.04 0.01 66 1006.0
20200707205543 73 101 0.0 0.0 0.00 0.04 0.01 66 1006.0
20200707205045 73 101 0.0 0.0 0.00 0.04 0.01 65 1006.0
20200707204548 74 101 0.0 0.0 0.00 0.04 0.01 66 1005.9
20200707204048 74 101 0.0 3.5 0.00 0.04 0.01 65 1005.8
20200707203553 75 101 0.9 3.5 0.00 0.04 0.01 62 1005.8
20200707203058 75 101 0.0 6.1 0.00 0.04 0.01 61 1005.7
20200707202556 75 101 1.7 6.1 0.00 0.04 0.01 61 1005.6
20200707202033 75 103 0.0 0.0 0.00 0.04 0.01 60 1005.4
20200707201541 75 103 0.0 0.0 0.00 0.04 0.01 60 1005.5
20200707201042 75 103 0.0 0.0 0.00 0.04 0.01 61 1005.4
20200707200548 75 103 0.0 1.7 0.00 0.04 0.01 60 1005.2
20200707200048 75 103 0.0 3.5 0.00 0.04 0.01 60 1005.0
20200707195536 75 103 0.0 5.2 0.00 0.04 0.01 61 1004.9
20200707195036 75 102 1.7 5.2 0.00 0.04 0.01 61 1004.8
20200707194538 75 102 0.0 2.6 0.00 0.04 0.01 60 1004.8
20200707194038 75 102 0.0 5.2 0.00 0.04 0.01 60 1004.7
20200707193549 76 102 1.7 5.2 0.00 0.04 0.01 60 1004.7
20200707193033 76 102 0.0 3.5 0.00 0.04 0.01 59 1004.6
20200707192551 76 102 0.9 3.5 0.00 0.04 0.01 59 1004.5
20200707192105 76 102 2.6 6.1 0.00 0.04 0.01 57 1004.5
20200707191613 77 102 2.6 6.1 0.00 0.04 0.01 57 1004.4
20200707191057 77 101 0.0 6.1 0.00 0.04 0.01 57 1004.3
20200707190543 77 101 3.5 6.1 0.00 0.04 0.01 57 1004.2
20200707190046 78 94 3.5 6.1 0.00 0.04 0.01 56 1004.1
20200707185540 78 88 0.0 0.0 0.00 0.04 0.01 55 1004.0
20200707185036 79 88 0.0 3.5 0.00 0.04 0.01 54 1003.8
20200707184537 79 88 0.0 3.5 0.00 0.04 0.01 54 1003.7
20200707184047 80 88 0.0 1.7 0.00 0.04 0.01 55 1003.6
20200707183607 80 88 0.0 1.7 0.00 0.04 0.01 56 1003.6
20200707183053 80 88 0.0 0.0 0.00 0.04 0.01 57 1003.6
20200707182542 81 88 0.0 0.0 0.00 0.04 0.01 58 1003.6
20200707182047 81 88 0.0 0.0 0.00 0.04 0.01 59 1003.4
20200707181548 81 88 0.0 0.0 0.00 0.04 0.01 59 1003.4
20200707181049 81 88 0.0 0.0 0.00 0.04 0.01 59 1003.2
20200707180550 81 88 0.0 0.0 0.00 0.04 0.01 59 1003.1
20200707180050 82 88 0.0 0.0 0.00 0.04 0.01 58 1003.1
20200707175537 82 88 0.0 1.7 0.00 0.04 0.01 58 1003.0
20200707175050 82 88 0.0 0.0 0.00 0.04 0.01 58 1003.0
20200707174552 82 88 0.0 0.0 0.00 0.04 0.01 57 1003.0
20200707174057 82 88 0.0 3.5 0.00 0.04 0.01 57 1002.8
20200707173553 82 88 0.0 3.5 0.00 0.04 0.01 57 1002.6
20200707173035 83 88 1.7 3.5 0.00 0.04 0.01 56 1002.6
20200707172542 84 88 0.0 0.0 0.00 0.04 0.01 55 1002.5
20200707172043 84 88 0.0 0.0 0.00 0.04 0.01 55 1002.3
20200707171601 84 88 0.0 0.9 0.00 0.04 0.01 55 1002.3
20200707171057 85 88 0.0 0.9 0.00 0.04 0.01 54 1002.3
20200707170540 85 88 0.0 0.9 0.00 0.04 0.01 54 1002.3
20200707170056 85 88 0.0 2.6 0.00 0.04 0.01 53 1002.3
20200707165542 85 88 0.0 2.6 0.00 0.04 0.01 53 1002.3
20200707165056 85 88 0.0 0.9 0.00 0.04 0.01 54 1002.2
20200707164546 85 88 0.0 5.2 0.00 0.04 0.01 53 1002.3
20200707164038 86 88 0.9 6.1 0.00 0.04 0.01 53 1002.1
20200707163542 86 85 0.0 6.1 0.00 0.04 0.01 53 1002.1
20200707163048 87 76 0.0 5.2 0.00 0.04 0.01 52 1002.0
20200707162552 87 71 0.0 1.7 0.00 0.04 0.01 48 1002.0
20200707162038 87 71 0.0 4.3 0.00 0.04 0.01 47 1001.7
20200707161533 87 72 1.7 5.2 0.00 0.04 0.01 47 1001.6
20200707161048 88 63 0.9 5.2 0.00 0.04 0.01 47 1001.5
20200707160554 88 61 0.9 7.0 0.00 0.04 0.01 46 1001.4
20200707160056 88 60 1.7 7.0 0.00 0.04 0.01 46 1001.4
20200707155535 88 63 2.6 5.2 0.00 0.04 0.01 45 1001.3
20200707155040 88 65 2.6 7.0 0.00 0.04 0.01 45 1001.1
20200707154544 88 63 2.6 8.7 0.00 0.04 0.01 45 1001.0
20200707154042 88 41 2.6 8.7 0.00 0.04 0.01 45 1000.9
20200707153545 88 48 0.9 6.1 0.00 0.04 0.01 45 1000.9
20200707153050 88 51 0.0 7.8 0.00 0.04 0.01 45 1000.9
20200707152601 88 51 3.5 8.7 0.00 0.04 0.01 45 1000.9
20200707152101 88 44 2.6 8.7 0.00 0.04 0.01 46 1000.9
20200707151547 88 37 3.5 8.7 0.00 0.04 0.01 45 1001.0
20200707151045 88 54 2.6 6.1 0.00 0.04 0.01 45 1001.0
20200707150549 89 59 1.7 6.1 0.00 0.04 0.01 46 1000.9
20200707150052 89 49 0.0 6.1 0.00 0.04 0.01 46 1001.0
20200707145538 89 47 0.9 7.8 0.00 0.04 0.01 46 1001.0
20200707145036 89 47 1.7 7.8 0.00 0.04 0.01 45 1001.0
20200707144543 89 50 1.7 6.1 0.00 0.04 0.01 46 1001.1
20200707144058 88 59 0.9 7.0 0.00 0.04 0.01 45 1001.1
20200707143600 88 47 0.9 7.8 0.00 0.04 0.01 45 1001.0
20200707143049 88 53 1.7 7.8 0.00 0.04 0.01 45 1001.1
20200707142551 88 61 1.7 7.8 0.00 0.04 0.01 44 1001.1
20200707142038 88 75 1.7 9.6 0.00 0.04 0.01 45 1001.1
20200707141534 89 60 4.3 9.6 0.00 0.04 0.01 44 1001.1
20200707141038 89 63 1.7 7.8 0.00 0.04 0.01 45 1001.1
20200707140546 88 63 1.7 7.8 0.00 0.04 0.01 46 1001.1
20200707140051 88 54 2.6 7.8 0.00 0.04 0.01 45 1001.1
20200707135535 88 67 2.6 10.4 0.00 0.04 0.01 46 1001.0
20200707135037 88 44 3.5 9.6 0.00 0.04 0.01 45 1001.0